#timestamp,LO_Frequency,Hit,StdDev 
1705881615.8,286046995.2,P
1705881635.6,286046996.4,N
1705881655.5,286046993.4,N
1705881675.3,286046995.9,N
1705881695.2,286046994.1,N
1705881715.9,286046994.0,N
1705881735.7,286046994.3,N
1705881755.6,286046991.7,N
1705881775.4,286046992.7,N
1705881795.2,286046992.9,N
1705881815.1,286046993.0,N
1705881816.0,286046993.0,N
1705881835.8,286046992.3,N
1705881855.7,286046994.3,N
1705881875.5,286046992.2,N
1705881895.3,286046993.1,N
1705881915.2,286046993.1,N
1705881935.0,286046990.3,N
1705881935.9,286046990.3,N
1705881955.8,286046990.5,N
1705881975.6,286046992.3,N
1705881995.4,286046992.0,N
1705882015.3,286046990.3,N
1705882035.1,286046990.8,N
1705882055.9,286046991.5,N
1705882075.7,286046991.2,N
1705882095.5,286046990.4,N
1705882115.4,286046988.6,N
1705882135.2,286046989.7,N
1705882155.0,286046988.7,Y
1705882155.9,286046988.7,P
1705882175.8,286046996.8,N
1705882195.6,286046996.7,N
1705882215.5,286046996.6,N
1705882235.3,286046996.5,N
1705882255.1,286046997.3,N
1705882275.9,286046997.5,N
1705882295.7,286046997.4,N
1705882315.6,286046997.9,N
1705882335.4,286046997.4,N
1705882355.2,286046997.1,N
1705882375.1,286046997.5,N
1705882376.0,286046997.5,N
1705882395.8,286046997.9,N
1705882415.6,286046997.4,N
1705882435.5,286046997.6,N
1705882455.3,286046997.0,N
1705882475.2,286046996.8,N
1705882495.9,286046997.3,N
1705882515.7,286046998.9,N
1705882535.6,286047001.1,N
1705882555.4,286047002.8,N
1705882575.2,286047000.3,N
1705882595.1,286047000.0,N
1705882596.0,286047000.0,N
1705882615.8,286047000.0,N
1705882635.7,286047002.8,N
1705882655.5,286046999.8,N
1705882675.3,286047000.8,N
1705882695.2,286046998.3,N
1705882715.0,286046999.0,N
1705882715.9,286046999.0,N
1705882735.7,286046998.7,N
1705882755.6,286046996.5,N
1705882775.4,286046998.8,N
1705882795.3,286046998.6,N
1705882815.1,286047000.6,N
1705882835.8,286047000.8,N
1705882855.7,286047002.6,N
1705882875.5,286046999.8,N
1705882895.4,286046999.9,N
1705882915.2,286047000.8,N
1705882935.0,286047000.8,N
1705882935.9,286047000.8,N
1705882955.8,286046999.3,N
1705882975.6,286047001.0,N
1705882995.4,286046998.2,N
1705883015.3,286046998.6,N
1705883035.1,286046998.7,N
1705883055.9,286046998.4,N
1705883075.7,286046998.9,N
1705883095.5,286046998.8,N
1705883115.4,286047000.9,N
1705883135.2,286046999.9,N
1705883155.0,286047001.0,N
1705883155.9,286047001.0,N
1705883175.8,286047000.6,N
1705883195.6,286047000.7,N
1705883215.5,286047001.1,N
1705883235.3,286047000.5,N
1705883255.1,286047002.7,N
1705883275.9,286047002.8,N
1705883295.7,286047000.9,N
1705883315.6,286046998.3,N
1705883335.4,286046999.1,N
1705883355.2,286046996.6,N
1705883375.1,286046998.4,N
1705883376.0,286046998.4,N
1705883395.8,286046999.4,N
1705883415.6,286046999.6,N
1705883435.5,286046997.3,N
1705883455.3,286046994.9,Y
1705883475.2,286046997.9,P
1705883495.9,286046997.3,N
1705883515.7,286046997.4,N
1705883535.6,286046999.2,N
1705883555.4,286046999.2,N
1705883575.2,286046999.1,N
1705883595.1,286046999.3,N
1705883596.0,286046999.3,N
1705883615.8,286046997.2,Y
1705883635.7,286046998.4,P
1705883655.5,286047000.5,N
1705883675.3,286047000.8,N
1705883695.2,286047000.6,N
1705883715.0,286047000.9,N
1705883715.9,286047000.9,N
1705883735.8,286047000.8,N
1705883755.6,286047000.5,N
1705883775.4,286047000.0,N
1705883795.3,286046999.9,N
1705883815.1,286047000.4,N
1705883835.9,286047000.3,N
1705883855.7,286046998.2,N
1705883875.5,286047000.5,N
1705883895.4,286047000.9,N
1705883915.2,286046998.6,N
1705883935.0,286046999.5,N
1705883936.0,286046999.5,N
1705883955.8,286046998.7,N
1705883975.6,286046998.9,N
1705883995.5,286046996.9,Y
1705884015.3,286046999.4,P
1705884035.2,286046999.2,P
1705884055.0,286046997.2,P
1705884055.9,286046997.2,N
1705884105.8,286046998.3,E
1705884115.7,286047000.6,N
1705884135.5,286047002.1,P
1705884155.4,286047001.5,N
1705884175.2,286047002.0,Y
1705884195.0,286046998.5,P
1705884195.9,286046998.5,N
1705884215.8,286047000.9,N
1705884235.6,286047000.4,N
1705884255.5,286047000.4,N
1705884275.3,286047000.3,N
1705884295.1,286046998.2,N
1705884315.9,286046998.3,N
1705884335.7,286047000.5,N
1705884355.5,286047000.7,N
1705884375.4,286047000.8,N
1705884395.2,286047001.0,N
1705884415.1,286047000.7,N
1705884416.0,286047000.7,N
1705884435.8,286047001.0,N
1705884455.6,286047002.3,N
1705884475.5,286047002.1,N
1705884495.3,286046999.9,N
1705884515.1,286046998.1,N
1705884535.9,286047001.0,N
1705884555.7,286047000.3,N
1705884575.6,286047000.0,N
1705884595.4,286047002.4,N
1705884615.2,286046999.9,N
1705884635.1,286047001.1,N
1705884636.0,286047001.1,N
1705884655.8,286047000.8,N
1705884675.6,286046999.7,N
1705884695.5,286046999.7,N
1705884715.3,286046999.8,N
1705884735.2,286047000.3,N
1705884755.9,286047000.4,N
1705884775.7,286047000.8,N
1705884795.6,286047000.2,N
1705884815.4,286047000.5,N
1705884835.2,286047000.0,N
1705884855.1,286047000.2,N
1705884856.0,286047000.2,N
1705884875.8,286047002.3,N
1705884895.7,286047001.2,N
1705884915.5,286046998.9,N
1705884935.3,286047001.2,N
1705884955.2,286046996.9,Y
1705884975.0,286046997.1,P
1705884975.9,286046997.1,N
1705884995.8,286046994.9,P
1705885015.6,286046997.2,N
1705885035.4,286046996.6,N
1705885055.3,286046998.3,N
1705885075.1,286047001.1,N
1705885076.0,286047001.1,N
1705885095.8,286047000.5,N
1705885115.7,286047000.0,N
1705885135.5,286047001.0,N
1705885155.3,286046998.5,N
1705885175.2,286046998.5,N
1705885195.0,286046999.3,N
1705885195.9,286046999.3,N
